Regional Weather Roundup
Issued by NWS Cleveland, OH

Home | Current Version | Previous Version | Text Only | Print | Product List | Glossary Off
Versions: 1 2 3 4 5 6 7 8 9 10 11 12 13 14 15 16 17 18 19 20 21 22 23 24 25 26 27 28 29 30 31 32 33 34 35 36 37 38 39 40 41 42 43 44 45 46 47 48 49 50

000
ASUS41 KCLE 202210
RWRCLE
OHIO REGIONAL WEATHER ROUNDUP
NATIONAL WEATHER SERVICE WILMINGTON, OH
600 PM EDT WED AUG 20 2014

NOTE: "FAIR" INDICATES FEW OR NO CLOUDS BELOW 12,000 FEET WITH NO
SIGNIFICANT WEATHER AND/OR OBSTRUCTIONS TO VISIBILITY.

OHZ001>008-015>018-024>027-034-035-043-044-202300-
   NORTHWEST OHIO

CITY           SKY/WX    TMP DP  RH WIND       PRES   REMARKS
DEFIANCE       SUNNY     84  65  52 VRB7      29.90F
FINDLAY        SUNNY     84  66  54 W13G23    29.90S
TOLEDO EXPRESS SUNNY     83  65  54 W12       29.88S
TOLEDO METCALF MOSUNNY   84  64  50 W15       29.89S
LIMA           MOSUNNY   83  67  58 W12       29.92F
$$

OHZ009>014-019>023-028>033-038-089-202300-
   NORTHEAST OHIO

CITY           SKY/WX    TMP DP  RH WIND       PRES   REMARKS
CLE-HOPKINS    PTSUNNY   79  67  66 W8        29.93R
CLE-LAKEFRONT  PTSUNNY   75  71  87 CALM      29.90R
CUY CO. ARPT   PTSUNNY   79  72  78 NW9       29.92S
LORAIN-ELYRIA  PTSUNNY   84  68  58 W9        29.91S
ASHTABULA      CLOUDY    75  68  78 W6        29.94F
AKRON-CANTON   MOSUNNY   80  67  64 SW10      29.94R
WOOSTER        MOSUNNY   81  67  62 W10       29.93S
MANSFIELD      MOSUNNY   82  65  56 W12G17    29.94S
YOUNGSTOWN     TSTM      71  64  78 SW8G21    29.94R
$$

OHZ042-051>053-060>062-070>072-077>081-202300-
  SOUTHWEST OHIO

CITY           SKY/WX    TMP DP  RH WIND       PRES   REMARKS
CINC-COVINGTON CLOUDY    75  69  81 SW5       29.96F
CINC-LUNKEN    CLOUDY    75  68  78 S6        29.95F
HAMILTON       CLOUDY    80  69  69 CALM      29.94F
DAYTON         MOSUNNY   86  63  45 W14       29.95F
WRIGHT-PAT AFB MOSUNNY   87  62  44 W13       29.93F
DAYTON GENERAL PTSUNNY   84  65  52 VRB7      29.94F
WILMINGTON     PTSUNNY   83  64  52 W10       29.96F
$$

OHZ036-037-039>041-045>050-054>059-063>069-073>076-082>088-202300-
  CENTRAL AND SOUTHEAST OHIO

CITY           SKY/WX    TMP DP  RH WIND       PRES   REMARKS
COLUMBUS       LGT RAIN  86  62  44 NW17G23   29.92S
OSU AIRPORT    SUNNY     85  65  51 W12       29.93S
BOLTON FIELD   MOSUNNY   84  66  54 W12       29.94S
RICKENBACK AFB MOSUNNY   88  60  38 W13       29.92F
NEWARK         LGT RAIN  74  68  81 VRB6      29.93R
MARION         SUNNY     83  64  52 W9G18     29.93S
LANCASTER      PTSUNNY   85  66  53 W14G23    29.94S
ZANESVILLE     PTSUNNY   83  65  54 SW6       29.93S
NEW PHILLY     PTSUNNY   75  69  81 CALM      29.94F
$$



USA.gov is the U.S. government's official web portal to all federal, state and local government web resources and services.